Home > Weather > Bournemouth > Past weeks

Flag for United Kingdom Past Weather in Bournemouth, England, United Kingdom — Yesterday and Last 2 Weeks

Now
68 °F

Scattered clouds.


Feels Like: 68 °F
Forecast: 56 / 67 °F
Wind: 13 mph from West

Location: Bournemouth Airport

Current Time: Jul 25, 2016 at 6:53:10 PM

Latest Report: Jul 25, 2016 at 6:20 PM


Visibility: N/A

Pressure: 30.12 "Hg

Humidity: 64%

Dew Point: 55 °F

Location of BournemouthLocation

Past Weather in Bournemouth — Graph

°F

Bournemouth Temperature Yesterday

Maximum temperature yesterday: 68 °F (at 9:20 AM)
Minimum temperature yesterday: 59 °F (at 5:50 AM)
Average temperature yesterday: 65 °F

High & Low Weather Summary for the Past Weeks

 TemperatureHumidityPressure
High88 °F (Jul 19, 2:20 PM)100% (Jul 17, 5:50 AM)30.36 "Hg (Jul 17, 5:50 AM)
Low52 °F (Jul 12, 11:20 PM)38% (Jul 20, 3:20 PM)29.71 "Hg (Jul 20, 6:20 AM)
Average67 °F73%30.08 "Hg
* Reported Jul 10 5:20 PM — Jul 25 5:20 PM, Bournemouth, Weather by CustomWeather, © 2016

Note: Actual official high and low records may vary slightly from our data, if they occured in-between our weather recording intervals... More about our weather records

Advertising

Bournemouth Weather History for the Previous 24 Hours

Scroll right to see more
 ConditionsComfort  
Time TempWeatherWind HumidityBarometerVisibility
5:20 PM
Mon, Jul 25
70 °FScattered clouds.15 mph57%30.12 "HgN/A
4:50 PM72 °FScattered clouds.15 mph53%30.12 "HgN/A
4:20 PM70 °FScattered clouds.16 mph57%30.12 "HgN/A
3:50 PM68 °FScattered clouds.15 mph64%30.12 "HgN/A
3:20 PM68 °FScattered clouds.14 mph64%30.12 "HgN/A
2:50 PM70 °FScattered clouds.14 mph60%30.12 "HgN/A
2:20 PM70 °FScattered clouds.13 mph60%30.12 "HgN/A
1:50 PM70 °FScattered clouds.7 mph57%30.12 "HgN/A
1:20 PM70 °FScattered clouds.7 mph53%30.12 "HgN/A
12:50 PM72 °FScattered clouds.7 mph50%30.12 "HgN/A
12:20 PM70 °FScattered clouds.9 mph53%30.12 "HgN/A
11:50 AM70 °FScattered clouds.8 mph53%30.12 "HgN/A
11:20 AM68 °FScattered clouds.13 mph60%30.12 "HgN/A
10:50 AM68 °FScattered clouds.7 mph60%30.12 "HgN/A
10:20 AM68 °FScattered clouds.7 mph64%30.12 "HgN/A
9:50 AM66 °FPassing clouds.8 mph68%30.12 "HgN/A
9:20 AM64 °FPassing clouds.7 mph78%30.12 "HgN/A
8:50 AM64 °FPassing clouds.8 mph78%30.12 "HgN/A
8:20 AM63 °FPassing clouds.8 mph83%30.12 "HgN/A
7:50 AM61 °FPassing clouds.7 mph83%30.12 "HgN/A
7:20 AM59 °FSunny.7 mph88%30.12 "Hg10 mi
6:50 AM57 °FSunny.7 mph94%30.09 "Hg10 mi
6:20 AM55 °FClear.7 mph94%30.09 "Hg10 mi
5:50 AM54 °FClear.5 mph94%30.09 "Hg10 mi
11:50 PM
Sun, Jul 24
63 °FPassing clouds.5 mph94%30.09 "HgN/A
11:20 PM64 °FOvercast.8 mph88%30.09 "HgN/A
10:50 PM64 °FPassing clouds.7 mph94%30.07 "HgN/A
10:20 PM64 °FPartly cloudy.7 mph94%30.07 "HgN/A
9:50 PM64 °FPartly sunny.9 mph94%30.07 "HgN/A
9:20 PM64 °FFog.8 mph94%30.07 "Hg2 mi
8:50 PM64 °FLow clouds.10 mph94%30.07 "HgN/A
8:20 PM64 °FLow clouds.10 mph94%30.07 "HgN/A
7:50 PM64 °FLow clouds.10 mph94%30.07 "Hg5 mi
7:20 PM64 °FLow clouds.9 mph94%30.07 "Hg4 mi
6:50 PM64 °FFog.9 mph94%30.07 "Hg3 mi
6:20 PM64 °FDrizzle. Fog.9 mph100%30.07 "Hg2 mi
Weather by CustomWeather, © 2016

See weather overviewHow to use our weather pages